"Pseudo-MPEC" for W01792

Created 2023 Nov 30 6:22:08 UT using Find_Orb

Click here for an explanation of pseudo-MPECs

 
 Astrometry: 
     W01792 * C2023 11 10yB))Qs8TqN,i!AstrometrybaZ']$AoYp-YHeredacted;7!-t*_O18
     W01792   C2023 11 10GvmIGu06wrRclickS,Yj0U9f40sG2^9here3F3q_[mfor,^:'n*$O18
     W01792   C2023 11 10@\1LpV6KoV9%PakhXh3OMHvYa6;/AsPW+VMamx0#8explanationO18

Station data:
(O18) WFST, Lenghu  (N38.607601 E93.895220).

Orbital elements:  W01792
   Perihelion 2024 May 10.11606 +/- 195 TT =  2:47:07 (JD 2460440.61606)
Epoch 2023 Nov 11.0 TT = JDT 2460259.5   Earth MOID: 0.3210   Ve: 0.0836
M 259.65918100 +/- 90               (J2000 ecliptic)             AutoNEOCP
n   0.55401392 +/- 0.313            Peri.  149.75466 +/- 60
a   1.46821253 +/- 0.552            Node    48.85577 +/- 27
e   0.5864586 +/- 0.237             Incl.   24.34777 +/- 44
P   1.78/649.79d           H 19.90  G  0.15   U 12.0  SR
q 0.60716661 +/- 0.701    Q 2.32925845 +/- 23.1
From 3 observations 2023 Nov. 10 (41.5 min); mean residual 0".00
Residuals in arcseconds: 
231110 O18  .00   .00     231110 O18  .01+  .00     231110 O18  .00   .00     

Ephemerides (geocentric):
Date (UTC) HH   RA             Dec           delta  r     elong  mag " sig PA
---- --------  ------------   ------------  ------ ------ -----  --- --------
2023 11 30 06  02 10 50.034   +15 53 51.30  .97420 1.8863 148.4 22.1  33d 102
2023 11 30 07  02 10 44.425   +15 53 55.14  .97427 1.8861 148.3 22.1  33d 102
2023 11 30 08  02 10 38.820   +15 53 58.98  .97434 1.8859 148.3 22.1  33d 102
2023 11 30 09  02 10 33.218   +15 54 02.83  .97441 1.8856 148.2 22.1  33d 102
2023 11 30 10  02 10 27.621   +15 54 06.67  .97448 1.8854 148.1 22.1  33d 102
2023 11 30 11  02 10 22.028   +15 54 10.53  .97455 1.8852 148.1 22.1  33d 102
2023 11 30 12  02 10 16.439   +15 54 14.38  .97462 1.8849 148.0 22.1  33d 102
2023 11 30 13  02 10 10.854   +15 54 18.24  .97469 1.8847 147.9 22.1  33d 102
2023 11 30 14  02 10 05.273   +15 54 22.10  .97476 1.8845 147.9 22.1  33d 102
2023 11 30 15  02 09 59.696   +15 54 25.97  .97484 1.8842 147.8 22.1  33d 102
2023 11 30 16  02 09 54.124   +15 54 29.84  .97491 1.8840 147.7 22.1  33d 102
2023 11 30 17  02 09 48.555   +15 54 33.72  .97498 1.8837 147.7 22.1  33d 102
2023 11 30 18  02 09 42.991   +15 54 37.59  .97506 1.8835 147.6 22.1  33d 102
2023 11 30 19  02 09 37.431   +15 54 41.48  .97513 1.8833 147.6 22.1  33d 102
2023 11 30 20  02 09 31.875   +15 54 45.36  .97521 1.8830 147.5 22.1  33d 102
2023 11 30 21  02 09 26.324   +15 54 49.25  .97528 1.8828 147.4 22.1  33d 102
2023 11 30 22  02 09 20.776   +15 54 53.15  .97536 1.8826 147.4 22.1  33d 102
2023 11 30 23  02 09 15.233   +15 54 57.05  .97544 1.8823 147.3 22.1  33d 102
2023 12 01 00  02 09 09.694   +15 55 00.95  .97551 1.8821 147.2 22.1  33d 102
2023 12 01 01  02 09 04.159   +15 55 04.85  .97559 1.8818 147.2 22.1  33d 102
2023 12 01 02  02 08 58.629   +15 55 08.76  .97567 1.8816 147.1 22.1  33d 102
2023 12 01 03  02 08 53.103   +15 55 12.68  .97575 1.8814 147.1 22.1  33d 102
2023 12 01 04  02 08 47.581   +15 55 16.60  .97582 1.8811 147.0 22.1  33d 102
2023 12 01 05  02 08 42.063   +15 55 20.52  .97590 1.8809 146.9 22.1  33d 102
2023 12 01 06  02 08 36.549   +15 55 24.45  .97598 1.8807 146.9 22.1  33d 102
2023 12 01 07  02 08 31.040   +15 55 28.38  .97606 1.8804 146.8 22.1  33d 102
2023 12 01 08  02 08 25.535   +15 55 32.32  .97614 1.8802 146.7 22.1  33d 102
2023 12 01 09  02 08 20.035   +15 55 36.26  .97622 1.8799 146.7 22.1  33d 102
2023 12 01 10  02 08 14.539   +15 55 40.20  .97631 1.8797 146.6 22.1  33d 102
2023 12 01 11  02 08 09.047   +15 55 44.15  .97639 1.8795 146.5 22.1  33d 102
2023 12 01 12  02 08 03.559   +15 55 48.11  .97647 1.8792 146.5 22.1  34d 102
2023 12 01 13  02 07 58.076   +15 55 52.06  .97655 1.8790 146.4 22.1  34d 102
2023 12 01 14  02 07 52.597   +15 55 56.03  .97664 1.8788 146.4 22.1  34d 102
2023 12 01 15  02 07 47.123   +15 55 59.99  .97672 1.8785 146.3 22.1  34d 102
2023 12 01 16  02 07 41.653   +15 56 03.97  .97680 1.8783 146.2 22.1  34d 102
2023 12 01 17  02 07 36.187   +15 56 07.94  .97689 1.8780 146.2 22.1  34d 102
2023 12 01 18  02 07 30.726   +15 56 11.92  .97697 1.8778 146.1 22.1  34d 102
2023 12 01 19  02 07 25.269   +15 56 15.91  .97706 1.8776 146.0 22.1  34d 102
2023 12 01 20  02 07 19.817   +15 56 19.90  .97714 1.8773 146.0 22.1  34d 102
2023 12 01 21  02 07 14.369   +15 56 23.90  .97723 1.8771 145.9 22.1  34d 102
2023 12 01 22  02 07 08.925   +15 56 27.90  .97732 1.8768 145.9 22.1  34d 102
2023 12 01 23  02 07 03.486   +15 56 31.90  .97740 1.8766 145.8 22.1  34d 102
2023 12 02 00  02 06 58.052   +15 56 35.91  .97749 1.8764 145.7 22.1  34d 102
2023 12 02 01  02 06 52.621   +15 56 39.93  .97758 1.8761 145.7 22.1  34d 102
2023 12 02 02  02 06 47.196   +15 56 43.95  .97767 1.8759 145.6 22.1  34d 102
2023 12 02 03  02 06 41.774   +15 56 47.97  .97776 1.8757 145.5 22.1  34d 102
2023 12 02 04  02 06 36.358   +15 56 52.00  .97784 1.8754 145.5 22.1  34d 102
2023 12 02 05  02 06 30.946   +15 56 56.04  .97793 1.8752 145.4 22.1  34d 102